Flag for Austria Weather past 2 weeks in Gmünd, Lower Austria, Austria

Now
63 °F

Mild.


Feels Like: 63 °F
Forecast: 40 / 51 °F
Wind: 6 mph from Northwest

Location: Retz

Current Time: Sep 21, 2014 at 8:34:53 PM

Latest Report: Sep 21, 2014 at 7:00 PM


Visibility: N/A

Pressure: 29.80 "Hg

Humidity: 85%

Dew point: 59 °F

Location of GmündLocation

Historic Weather in Gmünd — Graph

°F

Gmünd temperature yesterday

Maximum temperature yesterday: 75 °F (at 2:00 PM)
Minimum temperature yesterday: 58 °F (at 7:00 AM)
Average temperature yesterday: 64 °F

Past Weeks' High & Low Weather Summary

 TemperatureHumidityPressure
High76 °F (Sep 8, 4:00 PM)99% (Sep 14, 9:00 AM)30.08 "Hg (Sep 14, 9:00 AM)
Low53 °F (Sep 18, 7:00 AM)52% (Sep 8, 4:00 PM)29.77 "Hg (Sep 12, 6:00 AM)
Average62 °F82%29.98 "Hg
* Reported Sep 6 7:00 PM — Sep 21 7:00 PM, Gmünd, Weather by CustomWeather, © 2014

Note: Actual official high and low records may vary slightly from our data, if they occured in-between our weather recording intervals... More about our weather records

Advertising

Gmünd weather history for previous 24 hours

 ConditionsComfort  
Time TempWeatherWind HumidityBarometerVisibility
7:00 PM
Sep 21
63 °FMild.6 mph85%29.80 "HgN/A
6:00 PM63 °FFog.5 mph87%29.82 "HgN/A
5:00 PM69 °FMild.5 mph71%29.81 "HgN/A
4:00 PM69 °FMild.6 mph76%29.82 "HgN/A
3:00 PM64 °FSprinkles. Cloudy.8 mph84%29.85 "HgN/A
2:00 PM64 °FThundershowers. Overcast.8 mph85%29.86 "Hg11 mi
1:00 PM70 °FMild.5 mph68%29.86 "HgN/A
12:00 PM71 °FMild.6 mph69%29.88 "HgN/A
11:00 AM69 °FMild.1 mph76%29.89 "HgN/A
10:00 AM64 °FMild.1 mph83%29.91 "HgN/A
9:00 AM62 °FCool.2 mph87%29.91 "HgN/A
8:00 AM60 °FPassing clouds.2 mph91%29.91 "Hg12 mi
7:00 AM58 °FPassing clouds.2 mph94%29.92 "Hg11 mi
6:00 AM60 °FCool.3 mph93%29.91 "HgN/A
5:00 AM61 °FCool.5 mph92%29.91 "HgN/A
4:00 AM61 °FCool.3 mph93%29.91 "HgN/A
3:00 AM62 °FCool.6 mph92%29.91 "HgN/A
2:00 AM61 °FCool.5 mph94%29.93 "HgN/A
1:00 AM60 °FCool.2 mph97%29.93 "HgN/A
12:00 AM61 °FCool.3 mph96%29.93 "HgN/A
11:00 PM
Sep 20
61 °FCool.2 mph95%29.93 "HgN/A
10:00 PM62 °FCool.2 mph94%29.94 "HgN/A
9:00 PM64 °FMild.1 mph86%29.93 "HgN/A
8:00 PM67 °FFog.2 mph78%29.91 "HgN/A
Weather by CustomWeather, © 2014

See weather overviewHow to use our weather pages